User: anonymous   Login
Location: Pella
(41.4080°N, 92.9160°W)
Time: 13:59:31
(UTC-06:00)
Language:

ASTRO E2 - Orbit

View from above orbital plane
View from above orbital plane
View from above satellite
View from above satellite

Ground track
Ground track

The orbit data is extracted from the following two-line orbital elements,

1 28773U 05025A   17349.05803069  .00000858  00000-0  38859-4 0  9992
2 28773  31.3814 203.1447 0004662   0.8545 359.2109 15.16258569684825
Epoch (UTC): 15 December 2017 01:23:33
Eccentricity: 0.0004662
inclination: 31.3814°
perigee height: 514 km
apogee height: 520 km
right ascension of ascending node: 203.1447°
argument of perigee: 0.8545°
revolutions per day: 15.16258569
mean anomaly at epoch: 359.2109°
orbit number at epoch: 68482

The dashed part of the orbit path shows where the satellite is in the earth's shadow,  

DLR